timestamp,surface_pressure_avg,surface_temp_avg,battery_voltage,lat,long
2020-04-08 00:09:01+00:00,394.2245,1.69,13.13,47.84626,-54.09684
2020-04-08 00:19:01+00:00,390.9762,1.69,12.81,47.84626,-54.09684
2020-04-08 00:29:01+00:00,386.4196,1.69,12.81,47.84626,-54.09684
2020-04-08 00:39:01+00:00,382.2896,1.7,12.81,47.84626,-54.09684
2020-04-08 00:49:01+00:00,376.0979,1.7,12.81,47.84626,-54.09684
2020-04-08 00:59:01+00:00,369.1595,1.69,12.81,47.84626,-54.09684
2020-04-08 01:09:01+00:00,363.3146,1.7,12.81,47.84626,-54.09684
2020-04-08 01:19:01+00:00,356.3946,1.7,12.65,47.84626,-54.09684
2020-04-08 01:29:01+00:00,348.3063,1.7,12.65,47.84626,-54.09684
2020-04-08 01:39:01+00:00,338.3313,1.7,12.65,47.84626,-54.09684
2020-04-08 01:49:01+00:00,329.2512,1.7,12.65,47.84626,-54.09684
2020-04-08 01:59:01+00:00,320.8229,1.7,12.65,47.84626,-54.09684
2020-04-08 02:09:01+00:00,309.8597,1.7,12.65,47.84626,-54.09684
2020-04-08 02:19:01+00:00,297.6163,1.7,12.65,47.84626,-54.09684
2020-04-08 02:29:01+00:00,287.508,1.7,12.65,47.84626,-54.09684
2020-04-08 02:39:01+00:00,276.8614,1.7,12.65,47.84626,-54.09684
2020-04-08 02:49:01+00:00,265.2531,1.61,12.65,47.84626,-54.09684
2020-04-08 02:59:01+00:00,254.4914,1.66,12.65,47.84626,-54.09684
2020-04-08 03:09:01+00:00,245.8931,1.7,12.65,47.84626,-54.09684
2020-04-08 03:19:01+00:00,234.5931,1.7,12.65,47.84626,-54.09684
2020-04-08 03:29:01+00:00,222.7565,1.7,12.65,47.84626,-54.09684
2020-04-08 03:39:01+00:00,215.3298,1.7,12.65,47.84626,-54.09684
2020-04-08 03:49:01+00:00,210.1065,1.7,12.65,47.84626,-54.09684
2020-04-08 03:59:01+00:00,201.8198,1.7,12.65,47.84626,-54.09684
2020-04-08 04:09:01+00:00,193.9598,1.7,12.65,47.84626,-54.09684
2020-04-08 04:19:01+00:00,190.2781,1.7,12.65,47.84626,-54.09684
2020-04-08 04:29:01+00:00,185.8481,1.7,12.65,47.84626,-54.09684
2020-04-08 04:39:01+00:00,180.0081,1.69,12.65,47.84626,-54.09684
2020-04-08 04:49:01+00:00,175.7665,1.68,12.65,47.84626,-54.09684
2020-04-08 04:59:01+00:00,171.8798,1.68,12.65,47.84626,-54.09684
2020-04-08 05:09:01+00:00,170.9948,1.68,12.65,47.84626,-54.09684
2020-04-08 05:19:01+00:00,172.0281,1.63,12.57,47.84626,-54.09684
2020-04-08 05:29:01+00:00,168.8632,1.6,12.57,47.84626,-54.09684
2020-04-08 05:39:01+00:00,167.0565,1.6,12.57,47.84626,-54.09684
2020-04-08 05:49:01+00:00,170.6465,1.59,12.57,47.84626,-54.09684
2020-04-08 05:59:01+00:00,173.3565,1.59,12.57,47.84626,-54.09684
2020-04-08 06:09:01+00:00,171.8349,1.6,12.57,47.84626,-54.09684
2020-04-08 06:19:01+00:00,175.3315,1.65,12.57,47.84626,-54.09684
2020-04-08 06:29:01+00:00,183.2798,1.69,12.57,47.84626,-54.09684
2020-04-08 06:39:01+00:00,185.5182,1.7,12.57,47.84626,-54.09684
2020-04-08 06:49:01+00:00,188.3598,1.7,12.57,47.84626,-54.09684
2020-04-08 06:59:01+00:00,198.5831,1.69,12.57,47.84626,-54.09684
2020-04-08 07:09:01+00:00,205.0681,1.69,12.57,47.84626,-54.09684
2020-04-08 07:19:01+00:00,205.4881,1.69,12.57,47.84626,-54.09684
2020-04-08 07:29:01+00:00,211.3081,1.68,12.57,47.84626,-54.09684
2020-04-08 07:39:01+00:00,220.7498,1.65,12.57,47.84626,-54.09684
2020-04-08 07:49:01+00:00,224.2598,1.64,12.57,47.84626,-54.09684
2020-04-08 07:59:01+00:00,228.6331,1.66,12.57,47.84626,-54.09684
2020-04-08 08:09:01+00:00,238.3114,1.63,12.57,47.84626,-54.09684
2020-04-08 08:19:01+00:00,246.4731,1.64,12.49,47.84626,-54.09684
2020-04-08 08:29:01+00:00,251.5764,1.63,12.49,47.84626,-54.09684
2020-04-08 08:39:01+00:00,256.0964,1.61,12.49,47.84626,-54.09684
2020-04-08 08:49:01+00:00,265.6481,1.6,12.49,47.84626,-54.09684
2020-04-08 08:59:01+00:00,273.4114,1.5,12.49,47.84626,-54.09684
2020-04-08 09:09:01+00:00,279.1314,1.52,12.49,47.84626,-54.09684
2020-04-08 09:19:01+00:00,285.8997,1.4,12.49,47.84626,-54.09684
2020-04-08 09:29:01+00:00,297.5014,1.37,12.49,47.84626,-54.09684
2020-04-08 09:39:01+00:00,304.9296,1.36,12.49,47.84626,-54.09684
2020-04-08 09:49:01+00:00,311.303,1.4,12.49,47.84626,-54.09684
2020-04-08 09:59:01+00:00,319.403,1.3,12.49,47.84626,-54.09684
2020-04-08 10:09:01+00:00,329.7346,1.3,12.49,47.84626,-54.09684
2020-04-08 10:19:01+00:00,338.5847,1.28,13.21,47.84626,-54.09684
2020-04-08 10:29:01+00:00,348.2078,1.2,13.21,47.84626,-54.09684
2020-04-08 10:39:01+00:00,355.093,1.2,13.21,47.84626,-54.09684
2020-04-08 10:49:01+00:00,362.2713,1.2,13.21,47.84626,-54.09684
2020-04-08 10:59:01+00:00,367.1963,1.2,13.21,47.84626,-54.09684
2020-04-08 11:09:01+00:00,371.3262,1.2,13.21,47.84626,-54.09684
2020-04-08 11:19:01+00:00,375.0496,1.2,14.32,47.84626,-54.09684
2020-04-08 11:29:01+00:00,379.073,1.2,14.32,47.84626,-54.09684
2020-04-08 11:39:01+00:00,382.3963,1.2,14.32,47.84626,-54.09684
2020-04-08 11:49:01+00:00,386.6279,1.18,14.32,47.84626,-54.09684
2020-04-08 11:59:01+00:00,390.2329,1.15,14.32,47.84626,-54.09684
2020-04-08 12:09:01+00:00,390.1379,1.14,14.32,47.84626,-54.09684
2020-04-08 12:19:01+00:00,388.8196,1.14,14.56,47.84626,-54.09684
2020-04-08 12:29:01+00:00,389.4546,1.13,14.56,47.84626,-54.09684
2020-04-08 12:39:01+00:00,387.4713,1.15,14.56,47.84626,-54.09684
2020-04-08 12:49:01+00:00,383.7012,1.18,14.56,47.84626,-54.09684
2020-04-08 12:59:01+00:00,381.1028,1.17,14.56,47.84626,-54.09684
2020-04-08 13:09:01+00:00,375.93800000000016,1.17,14.56,47.84626,-54.09684
2020-04-08 13:19:01+00:00,369.0213,1.18,14.8,47.84626,-54.09684
2020-04-08 13:29:01+00:00,363.4912,1.18,14.8,47.84626,-54.09684
2020-04-08 13:39:01+00:00,357.9063,1.17,14.8,47.84626,-54.09684
2020-04-08 13:49:01+00:00,349.5496,1.16,14.8,47.84626,-54.09684
2020-04-08 13:59:01+00:00,343.3062,1.17,14.8,47.84626,-54.09684
2020-04-08 14:09:01+00:00,334.3196,1.15,14.8,47.84626,-54.09684
2020-04-08 14:19:01+00:00,323.6747,1.15,14.72,47.84626,-54.09684
2020-04-08 14:29:01+00:00,313.5214,1.15,14.72,47.84626,-54.09684
2020-04-08 14:39:01+00:00,304.2947,1.13,14.72,47.84626,-54.09684
2020-04-08 14:49:01+00:00,294.6263,1.11,14.72,47.84626,-54.09684
2020-04-08 14:59:01+00:00,284.1697,1.12,14.72,47.84626,-54.09684
2020-04-08 15:09:01+00:00,273.4531,1.11,14.72,47.84626,-54.09684
2020-04-08 15:19:01+00:00,262.9648,1.12,14.64,47.84626,-54.09684
2020-04-08 15:29:01+00:00,250.4964,1.13,14.64,47.84626,-54.09684
2020-04-08 15:39:01+00:00,237.9981,1.12,14.64,47.84626,-54.09684
2020-04-08 15:49:01+00:00,227.5698,1.13,14.64,47.84626,-54.09684
2020-04-08 15:59:01+00:00,218.6814,1.12,14.64,47.84626,-54.09684
2020-04-08 16:09:01+00:00,208.2314,1.1,14.64,47.84626,-54.09684
2020-04-08 16:19:01+00:00,196.6298,1.1,14.56,47.84626,-54.09684
2020-04-08 16:29:01+00:00,188.7481,1.1,14.56,47.84626,-54.09684
2020-04-08 16:39:01+00:00,183.3315,1.1,14.56,47.84626,-54.09684
2020-04-08 16:49:01+00:00,177.3415,1.11,14.56,47.84626,-54.09684
2020-04-08 16:59:01+00:00,169.3948,1.11,14.56,47.84626,-54.09684
2020-04-08 17:09:01+00:00,162.6265,1.12,14.56,47.84626,-54.09684
2020-04-08 17:19:01+00:00,161.4131,1.15,14.48,47.84626,-54.09684
2020-04-08 17:29:01+00:00,160.4965,1.18,14.48,47.84626,-54.09684
2020-04-08 17:39:01+00:00,157.7798,1.2,14.48,47.84626,-54.09684
2020-04-08 17:49:01+00:00,158.3265,1.21,14.48,47.84626,-54.09684
2020-04-08 17:59:01+00:00,161.1082,1.32,14.48,47.84626,-54.09684
2020-04-08 18:09:01+00:00,161.0182,1.49,14.48,47.84626,-54.09684
2020-04-08 18:19:01+00:00,161.9182,1.53,14.16,47.84626,-54.09684
2020-04-08 18:29:01+00:00,168.3065,1.8,14.16,47.84626,-54.09684
2020-04-08 18:39:01+00:00,174.6448,1.8,14.16,47.84626,-54.09684
2020-04-08 18:49:01+00:00,177.4448,1.63,14.16,47.84626,-54.09684
2020-04-08 18:59:01+00:00,180.6915,1.7,14.16,47.84626,-54.09684
2020-04-08 19:09:01+00:00,186.0098,1.7,14.16,47.84626,-54.09684
2020-04-08 19:19:01+00:00,189.2981,1.5,14.16,47.84626,-54.09684
2020-04-08 19:29:01+00:00,194.0048,1.7,14.16,47.84626,-54.09684
2020-04-08 19:39:01+00:00,202.4298,1.9,14.16,47.84626,-54.09684
2020-04-08 19:49:01+00:00,209.6764,2.0,14.16,47.84626,-54.09684
2020-04-08 19:59:01+00:00,215.8814,1.59,14.16,47.84626,-54.09684
2020-04-08 20:09:01+00:00,222.3281,1.3,14.16,47.84626,-54.09684
2020-04-08 20:19:01+00:00,229.3031,1.2,14.0,47.84626,-54.09684
2020-04-08 20:29:01+00:00,233.6965,1.2,14.0,47.84626,-54.09684
2020-04-08 20:39:01+00:00,239.7931,1.23,14.0,47.84626,-54.09684
2020-04-08 20:49:01+00:00,249.4165,1.28,14.0,47.84626,-54.09684
2020-04-08 20:59:01+00:00,258.5231,1.3,14.0,47.84626,-54.09684
2020-04-08 21:09:01+00:00,266.1381,1.3,14.0,47.84626,-54.09684
2020-04-08 21:19:01+00:00,272.8798,1.3,13.84,47.84626,-54.09684
2020-04-08 21:29:01+00:00,282.7264,1.3,13.84,47.84626,-54.09684
2020-04-08 21:39:01+00:00,292.838,1.24,13.84,47.84626,-54.09684
2020-04-08 21:49:01+00:00,303.7414,1.44,13.84,47.84626,-54.09684
2020-04-08 21:59:01+00:00,314.5031,1.5,13.84,47.84626,-54.09684
2020-04-08 22:09:01+00:00,323.1013,1.5,13.84,47.84626,-54.09684
2020-04-08 22:19:01+00:00,331.6346,1.5,13.37,47.84626,-54.09684
2020-04-08 22:29:01+00:00,340.6913,1.53,13.37,47.84626,-54.09684
2020-04-08 22:39:01+00:00,351.1263,1.54,13.37,47.84626,-54.09684
2020-04-08 22:49:01+00:00,360.783,1.58,13.37,47.84626,-54.09684
2020-04-08 22:59:01+00:00,368.0813,1.59,13.37,47.84626,-54.09684
2020-04-08 23:09:01+00:00,375.7413,1.6,13.37,47.84626,-54.09684
2020-04-08 23:19:01+00:00,383.2562,1.6,13.05,47.84626,-54.09684
2020-04-08 23:29:01+00:00,388.7829,1.6,13.05,47.84626,-54.09684
2020-04-08 23:39:01+00:00,391.4211,1.6,13.05,47.84626,-54.09684
2020-04-08 23:49:01+00:00,394.3029,1.6,13.05,47.84626,-54.09684
2020-04-08 23:59:01+00:00,397.8162,1.6,13.05,47.84626,-54.09684
